�N����,����,�~����,�C��,���x,�C��,����,���ϕ���,�ő�u�ԕ���,�ő厞����,���˗�,�I�_���x,�n�����x,�ő啗���N��,DTYPE
"19/07/03","00:10",0.0,22.4,92.9,1005.2,315.4,1.1,2.4,342.2,0.00,21.2,23.7,"00:09:20",1
"19/07/03","00:20",0.0,22.3,93.0,1005.2,287.9,1.1,2.0,321.5,0.00,21.2,23.6,"00:11:28",1
"19/07/03","00:30",0.0,22.2,93.0,1004.8,286.9,1.0,1.2,282.4,0.00,21.1,23.7,"00:26:00",1
"19/07/03","00:40",0.0,22.2,93.4,1005.0,315.7,1.5,2.2,336.5,0.00,21.1,23.8,"00:38:16",1
"19/07/03","00:50",0.0,22.3,93.3,1004.8,318.8,1.6,2.1,335.8,0.00,21.2,23.7,"00:41:52",1
"19/07/03","01:00",0.0,22.3,93.3,1005.0,308.1,1.1,2.0,327.5,0.00,21.2,23.6,"00:58:32",1
"19/07/03","01:10",0.0,22.2,93.5,1004.8,294.2,1.1,1.8,319.9,0.00,21.1,23.7,"01:01:20",1
"19/07/03","01:20",0.0,22.2,93.5,1004.8,300.1,1.0,1.2,307.4,0.00,21.1,23.5,"01:18:00",1
"19/07/03","01:30",0.0,22.4,93.7,1004.3,325.1,1.1,1.6,324.7,0.00,21.4,23.5,"01:24:32",1
"19/07/03","01:40",0.0,22.5,93.7,1004.5,328.9,1.3,2.0,321.5,0.00,21.5,23.6,"01:35:04",1
"19/07/03","01:50",0.0,22.5,93.7,1004.5,305.8,1.0,2.0,339.8,0.00,21.5,23.6,"01:40:16",1
"19/07/03","02:00",0.0,22.4,93.7,1004.5,282.9,1.0,1.1,277.7,0.00,21.4,23.6,"01:56:56",1
"19/07/03","02:10",0.0,22.5,93.7,1004.3,256.2,0.8,1.6,246.2,0.00,21.5,23.4,"02:04:48",1
"19/07/03","02:20",0.0,22.5,93.6,1004.8,291.4,0.8,1.4,316.9,0.00,21.5,23.4,"02:10:02",1
"19/07/03","02:30",0.0,22.6,93.9,1004.5,307.4,1.1,1.7,328.7,0.00,21.6,23.5,"02:29:20",1
"19/07/03","02:40",0.0,22.6,93.8,1005.0,326.3,1.2,1.8,327.4,0.00,21.6,23.5,"02:36:48",1
"19/07/03","02:50",0.0,22.6,93.8,1005.0,316.5,1.3,2.1,332.8,0.00,21.6,23.6,"02:46:16",1
"19/07/03","03:00",0.0,22.5,93.8,1005.2,300.1,1.0,1.3,306.4,0.00,21.5,23.4,"02:50:48",1
"19/07/03","03:10",0.0,22.5,93.9,1005.2,307.2,1.0,1.4,329.4,0.00,21.5,23.5,"03:01:12",1
"19/07/03","03:20",0.0,22.6,93.9,1005.0,326.0,0.7,1.2,344.4,0.00,21.6,23.5,"03:13:36",1
"19/07/03","03:30",0.0,22.7,93.9,1005.0,320.3,0.6,1.2,332.1,0.00,21.7,23.5,"03:24:16",1
"19/07/03","03:40",0.0,22.6,93.9,1004.8,273.3,0.1,0.6,312.2,0.00,21.6,23.6,"03:38:08",1
"19/07/03","03:50",0.0,22.5,93.9,1005.2,294.1,1.0,1.2,307.9,0.00,21.5,23.4,"03:46:16",1
"19/07/03","04:00",0.0,22.5,93.9,1005.5,313.5,1.1,1.4,319.4,0.00,21.5,23.3,"03:51:44",1
"19/07/03","04:10",0.0,22.4,93.9,1005.2,299.2,1.1,1.6,320.2,0.00,21.4,23.3,"04:00:08",1
"19/07/03","04:20",0.0,22.5,94.1,1005.2,327.5,1.2,1.7,334.0,0.00,21.5,23.3,"04:19:36",1
"19/07/03","04:30",0.0,22.5,94.1,1005.2,326.7,1.2,1.7,325.6,0.00,21.5,23.3,"04:20:56",1
"19/07/03","04:40",0.0,22.4,93.9,1005.5,296.1,1.0,1.4,312.8,0.00,21.4,23.3,"04:39:04",1
"19/07/03","04:50",0.0,22.4,94.2,1005.5,319.3,1.2,1.7,331.7,0.00,21.5,23.5,"04:45:52",1
"19/07/03","05:00",0.0,22.5,94.2,1005.0,323.1,0.8,1.6,329.6,0.00,21.6,23.3,"04:51:28",1
"19/07/03","05:10",0.0,22.5,94.1,1005.5,320.2,1.2,1.7,327.3,0.00,21.5,23.2,"05:04:24",1
"19/07/03","05:20",0.0,22.4,94.1,1005.5,286.4,0.8,1.0,302.1,0.00,21.4,23.3,"05:10:08",1
"19/07/03","05:30",0.0,22.4,94.2,1005.5,297.2,1.0,1.4,316.8,0.00,21.5,23.3,"05:23:12",1
"19/07/03","05:40",0.0,22.4,94.2,1005.5,305.3,1.2,2.0,318.0,0.00,21.5,23.2,"05:38:00",1
"19/07/03","05:50",0.0,22.4,94.1,1005.5,310.9,1.1,1.4,318.7,0.00,21.4,23.4,"05:40:48",1
"19/07/03","06:00",0.0,22.5,94.2,1005.5,301.1,1.0,1.3,316.8,0.00,21.6,23.3,"05:50:56",1
"19/07/03","06:10",0.0,22.6,94.1,1005.5,318.0,1.3,1.9,335.6,0.00,21.6,23.4,"06:05:28",1
"19/07/03","06:20",0.0,22.7,94.0,1005.2,302.9,0.7,1.3,325.0,0.01,21.7,23.3,"06:10:16",1
"19/07/03","06:30",0.0,22.8,93.8,1004.5,313.2,0.7,1.2,329.2,0.03,21.8,23.4,"06:25:20",1
"19/07/03","06:40",0.0,22.9,93.6,1004.5,328.1,1.1,2.0,335.8,0.05,21.9,23.4,"06:36:56",1
"19/07/03","06:50",0.0,23.0,93.0,1004.5,272.1,0.7,1.1,318.4,0.05,21.8,23.3,"06:40:08",1
"19/07/03","07:00",0.0,23.1,92.4,1004.5,193.6,0.5,1.0,71.1,0.07,21.8,23.5,"06:52:08",1
"19/07/03","07:10",0.0,23.2,92.6,1004.5,206.5,0.3,1.0,148.3,0.06,22.0,23.5,"07:06:08",1
"19/07/03","07:20",0.0,23.5,92.4,1004.8,194.6,0.3,0.9,132.0,0.04,22.2,23.6,"07:16:08",1
"19/07/03","07:30",0.0,23.4,91.6,1004.5,235.8,0.2,0.8,142.8,0.04,22.0,23.6,"07:20:32",1
"19/07/03","07:40",0.0,23.5,91.3,1004.8,278.9,0.5,1.0,306.1,0.05,22.0,23.6,"07:37:52",1
"19/07/03","07:50",0.0,23.8,90.7,1004.8,293.2,0.8,1.1,289.8,0.08,22.2,23.6,"07:44:32",1
"19/07/03","08:00",0.0,23.9,90.3,1004.5,325.0,0.8,1.7,331.0,0.08,22.3,23.7,"07:56:40",1
"19/07/03","08:10",0.0,24.1,89.6,1004.5,348.1,0.5,1.4,333.2,0.08,22.3,23.7,"08:06:00",1
"19/07/03","08:20",0.0,24.4,88.6,1004.8,345.8,0.8,1.8,350.2,0.13,22.4,24.0,"08:19:52",1
"19/07/03","08:30",0.0,24.5,87.8,1004.8,322.1,1.2,2.1,329.0,0.09,22.4,23.8,"08:20:24",1
"19/07/03","08:40",0.0,24.9,85.6,1005.0,306.9,1.2,2.6,339.5,0.16,22.4,24.0,"08:39:52",1
"19/07/03","08:50",0.0,24.8,85.2,1004.5,320.9,1.1,2.2,339.7,0.09,22.2,23.9,"08:41:12",1
"19/07/03","09:00",0.0,25.0,84.3,1004.3,314.5,0.5,1.1,330.7,0.09,22.2,24.0,"08:52:56",1
"19/07/03","09:10",0.0,25.1,83.7,1004.3,268.1,0.6,1.2,241.6,0.07,22.2,24.0,"09:05:28",1
"19/07/03","09:20",0.0,25.3,83.8,1004.1,328.2,0.8,1.8,330.6,0.06,22.4,24.3,"09:18:40",1
"19/07/03","09:30",0.0,25.2,84.0,1004.3,337.5,1.3,2.1,342.0,0.07,22.3,24.2,"09:28:00",1
"19/07/03","09:40",0.0,24.9,83.9,1004.5,334.6,1.3,2.1,340.3,0.09,22.0,24.3,"09:35:28",1
"19/07/03","09:50",0.0,25.1,83.0,1004.3,288.8,0.7,1.6,314.8,0.13,22.0,24.1,"09:40:48",1
"19/07/03","10:00",0.0,25.4,82.0,1004.1,220.7,0.3,0.9,142.5,0.16,22.1,24.3,"09:54:00",1
"19/07/03","10:10",0.0,25.5,81.5,1004.1,258.6,0.5,0.9,264.9,0.10,22.1,24.3,"10:05:12",1
"19/07/03","10:20",0.0,25.4,81.6,1004.1,310.0,0.7,1.6,336.8,0.10,22.1,24.4,"10:16:32",1
"19/07/03","10:30",0.0,26.1,81.5,1003.8,327.9,0.6,1.6,330.7,0.17,22.7,24.6,"10:27:04",1
"19/07/03","10:40",0.0,26.2,79.8,1003.6,318.0,0.7,2.4,347.6,0.24,22.5,24.7,"10:37:52",1
"19/07/03","10:50",0.0,26.2,79.5,1003.4,171.6,0.5,1.2,97.0,0.19,22.4,24.7,"10:41:52",1
"19/07/03","11:00",0.0,26.3,79.3,1003.6,325.9,0.8,2.4,336.5,0.19,22.5,25.0,"10:58:48",1
"19/07/03","11:10",0.0,26.4,78.7,1003.6,113.9,0.3,1.1,111.5,0.17,22.4,25.1,"11:01:04",1
"19/07/03","11:20",0.0,26.7,78.8,1003.8,195.5,0.3,1.1,133.3,0.17,22.8,25.0,"11:19:44",1
"19/07/03","11:30",0.0,26.6,78.6,1003.6,129.9,0.8,1.4,120.8,0.16,22.6,25.3,"11:21:20",1
"19/07/03","11:40",0.0,26.5,77.5,1003.4,37.9,0.7,1.7,25.5,0.14,22.3,25.2,"11:36:24",1
"19/07/03","11:50",0.0,26.7,77.3,1003.1,8.8,0.6,1.3,7.4,0.17,22.4,25.4,"11:43:36",1
"19/07/03","12:00",0.0,27.0,76.1,1003.1,340.8,0.5,1.3,343.9,0.16,22.5,25.5,"11:51:04",1
"19/07/03","12:10",0.0,26.8,76.3,1003.4,251.5,0.5,1.2,192.6,0.13,22.3,25.7,"12:08:08",1
"19/07/03","12:20",0.0,26.8,76.8,1002.9,161.2,0.6,1.9,130.4,0.13,22.4,25.5,"12:12:48",1
"19/07/03","12:30",0.0,26.9,77.1,1002.6,185.2,1.1,2.1,114.4,0.11,22.6,25.6,"12:22:40",1
"19/07/03","12:40",0.0,26.8,76.4,1002.2,213.4,1.2,3.2,237.8,0.12,22.3,25.4,"12:39:20",1
"19/07/03","12:50",0.0,26.9,76.7,1002.2,200.7,1.7,2.9,225.1,0.16,22.5,25.3,"12:41:28",1
"19/07/03","13:00",0.0,27.0,76.1,1001.9,230.5,1.5,3.3,224.5,0.18,22.5,25.6,"12:50:56",1
"19/07/03","13:10",0.0,27.1,77.0,1002.2,189.0,0.7,1.8,234.0,0.13,22.8,25.6,"13:00:32",1
"19/07/03","13:20",0.0,27.0,77.0,1002.4,174.3,1.1,2.9,199.9,0.13,22.7,25.4,"13:13:44",1
"19/07/03","13:30",0.0,26.9,76.6,1002.2,201.0,1.1,2.1,230.0,0.06,22.5,25.8,"13:28:00",1
"19/07/03","13:40",0.0,26.9,76.1,1002.9,210.5,1.3,2.9,232.6,0.06,22.4,25.7,"13:37:28",1
"19/07/03","13:50",0.0,26.8,75.9,1002.9,211.9,1.0,2.4,224.3,0.07,22.2,25.4,"13:47:28",1
"19/07/03","14:00",0.0,26.7,77.5,1002.4,195.1,0.8,1.6,141.8,0.10,22.5,25.6,"13:51:28",1
"19/07/03","14:10",0.0,26.9,76.3,1002.4,193.4,1.1,2.4,223.7,0.11,22.4,25.6,"14:08:32",1
"19/07/03","14:20",0.0,26.8,75.9,1002.2,202.8,1.0,2.0,231.6,0.10,22.2,25.6,"14:11:52",1
"19/07/03","14:30",0.0,27.4,76.0,1002.2,305.2,0.5,1.0,342.4,0.09,22.8,25.7,"14:28:00",1
"19/07/03","14:40",0.0,27.0,75.0,1002.4,236.7,0.8,1.8,194.0,0.04,22.2,25.6,"14:36:32",1
"19/07/03","14:50",0.0,27.0,75.6,1002.2,255.4,0.6,1.3,238.3,0.04,22.4,25.5,"14:40:16",1
"19/07/03","15:00",0.0,26.9,76.6,1001.9,225.2,1.1,2.9,213.3,0.09,22.5,25.6,"14:58:24",1
"19/07/03","15:10",0.0,27.0,75.6,1001.9,235.4,0.8,1.8,226.3,0.07,22.4,25.5,"15:01:20",1
"19/07/03","15:20",0.0,27.0,75.7,1001.9,234.9,0.6,1.4,247.0,0.04,22.4,25.5,"15:10:16",1
"19/07/03","15:30",0.0,26.8,75.8,1001.9,244.7,0.5,1.4,210.1,0.04,22.2,25.5,"15:22:32",1
"19/07/03","15:40",0.0,27.0,75.4,1001.9,264.2,0.6,1.7,256.0,0.05,22.3,25.4,"15:39:52",1
"19/07/03","15:50",0.0,27.2,75.9,1001.9,286.1,0.7,1.2,326.9,0.05,22.6,25.7,"15:46:24",1
"19/07/03","16:00",0.0,26.9,76.2,1001.7,297.8,1.0,2.0,335.6,0.06,22.4,25.5,"15:51:28",1
"19/07/03","16:10",0.0,26.8,78.2,1001.7,240.0,0.6,1.6,229.3,0.06,22.7,25.5,"16:03:12",1
"19/07/03","16:20",0.0,26.4,79.2,1001.7,239.9,1.1,2.4,244.4,0.07,22.5,25.7,"16:16:56",1
"19/07/03","16:30",0.0,26.4,79.6,1001.9,259.5,0.7,2.2,342.6,0.06,22.6,25.4,"16:26:40",1
"19/07/03","16:40",0.0,26.2,79.6,1001.7,308.5,0.7,1.2,315.3,0.05,22.4,25.6,"16:33:52",1
"19/07/03","16:50",0.0,26.5,79.9,1001.7,324.5,1.0,1.6,329.8,0.04,22.8,25.4,"16:45:52",1
"19/07/03","17:00",0.0,26.4,81.4,1001.7,322.4,0.8,1.2,324.4,0.03,23.0,25.5,"16:59:44",1
"19/07/03","17:10",0.0,26.3,83.4,1001.7,312.3,0.8,1.3,326.2,0.02,23.3,25.2,"17:00:08",1
"19/07/03","17:20",0.0,26.1,84.5,1001.9,327.8,1.0,1.4,325.0,0.03,23.3,25.4,"17:12:16",1
"19/07/03","17:30",0.0,25.6,85.6,1001.7,351.7,0.7,1.3,357.4,0.02,23.0,25.3,"17:29:20",1
"19/07/03","17:40",0.2,25.4,86.9,1001.7,359.0,0.7,1.3,15.1,0.01,23.1,25.2,"17:31:20",1
"19/07/03","17:50",0.0,25.2,87.8,1001.7,351.4,0.8,1.2,351.5,0.01,23.1,25.3,"17:41:36",1
"19/07/03","18:00",0.0,25.0,88.6,1002.2,359.0,0.7,1.1,355.6,0.01,23.0,25.2,"17:51:12",1
"19/07/03","18:10",0.0,24.9,88.9,1002.2,333.5,1.0,1.3,340.7,0.01,23.0,25.3,"18:07:12",1
"19/07/03","18:20",0.0,24.8,89.9,1002.2,290.3,0.6,1.6,333.5,0.00,23.1,25.2,"18:10:40",1
"19/07/03","18:30",0.0,24.7,90.0,1002.4,305.1,0.7,1.9,340.7,0.00,23.0,25.0,"18:28:08",1
"19/07/03","18:40",0.2,24.6,90.6,1001.9,317.1,0.7,1.4,333.5,0.00,23.0,25.1,"18:32:00",1
"19/07/03","18:50",0.0,24.5,90.9,1001.9,298.7,0.6,0.9,324.5,0.00,23.0,25.0,"18:40:32",1
"19/07/03","19:00",0.0,24.4,91.0,1002.4,283.1,0.6,1.1,256.4,0.00,22.9,25.0,"18:59:52",1
"19/07/03","19:10",0.0,24.3,91.4,1002.4,303.9,0.7,1.3,340.9,0.00,22.8,24.9,"19:06:40",1
"19/07/03","19:20",0.0,24.2,91.7,1002.6,325.8,0.8,1.4,340.0,0.00,22.8,25.0,"19:11:20",1
"19/07/03","19:30",0.0,24.2,92.1,1002.4,323.5,0.8,1.2,327.8,0.00,22.9,24.8,"19:23:28",1
"19/07/03","19:40",0.2,24.1,92.3,1002.4,307.3,0.6,1.0,304.6,0.00,22.8,24.7,"19:38:24",1
"19/07/03","19:50",0.2,24.0,92.4,1001.9,332.1,1.0,1.4,322.9,0.00,22.7,24.7,"19:46:16",1
"19/07/03","20:00",0.0,23.8,92.5,1001.7,303.7,0.7,1.1,351.6,0.00,22.6,24.7,"19:52:48",1
"19/07/03","20:10",0.2,23.7,92.9,1001.9,276.7,0.7,1.1,261.5,0.00,22.5,24.6,"20:00:08",1
"19/07/03","20:20",0.0,23.7,93.2,1001.9,332.1,0.7,1.3,332.5,0.00,22.6,24.7,"20:13:44",1
"19/07/03","20:30",0.0,23.8,93.3,1001.7,335.9,1.2,2.4,321.4,0.00,22.7,24.4,"20:28:08",1
"19/07/03","20:40",0.0,23.6,93.5,1001.7,316.2,1.1,2.5,335.6,0.00,22.5,24.7,"20:33:20",1
"19/07/03","20:50",0.2,23.5,93.5,1001.9,293.1,1.0,1.7,332.4,0.00,22.4,24.5,"20:49:12",1
"19/07/03","21:00",0.2,23.5,93.7,1001.7,296.5,1.3,3.5,316.0,0.00,22.5,24.5,"20:56:48",1
"19/07/03","21:10",0.2,23.4,93.8,1001.5,202.5,1.0,2.2,113.9,0.00,22.4,24.4,"21:00:08",1
"19/07/03","21:20",0.0,23.4,93.9,1001.5,272.9,0.7,1.6,250.9,0.00,22.4,24.4,"21:15:44",1
"19/07/03","21:30",0.2,23.5,94.0,1001.5,20.7,0.5,1.0,34.6,0.00,22.5,24.2,"21:24:56",1
"19/07/03","21:40",0.0,23.5,94.1,1001.7,296.7,0.5,0.9,236.4,0.00,22.5,24.2,"21:31:52",1
"19/07/03","21:50",0.2,23.6,94.1,1001.5,345.3,0.5,1.0,344.7,0.00,22.6,24.2,"21:47:12",1
"19/07/03","22:00",0.0,23.5,94.2,1001.5,284.4,0.5,0.8,302.3,0.00,22.6,24.2,"21:52:40",1
"19/07/03","22:10",0.2,23.4,94.4,1001.5,276.6,0.5,0.6,306.6,0.00,22.5,24.5,"22:07:12",1
"19/07/03","22:20",0.2,23.4,94.5,1001.7,264.5,0.3,0.8,262.6,0.00,22.5,24.2,"22:15:04",1
"19/07/03","22:30",0.2,23.3,94.6,1001.2,288.7,0.5,0.6,291.6,0.00,22.4,24.1,"22:23:04",1
"19/07/03","22:40",0.0,23.3,94.7,1001.0,275.1,0.3,0.6,269.2,0.00,22.4,24.1,"22:37:20",1
"19/07/03","22:50",0.0,23.3,94.9,1000.8,275.0,0.1,0.4,315.0,0.00,22.5,24.5,"22:41:04",1
"19/07/03","23:00",0.0,23.3,94.8,1000.8,295.8,0.3,0.6,294.0,0.00,22.5,24.1,"22:57:04",1
"19/07/03","23:10",0.2,23.3,94.9,1001.0,277.3,0.5,0.6,265.8,0.00,22.5,24.0,"23:05:52",1
"19/07/03","23:20",0.6,23.3,95.0,1001.0,296.1,0.6,0.9,301.1,0.00,22.5,24.0,"23:17:20",1
"19/07/03","23:30",1.0,23.4,95.0,1000.8,304.9,0.5,0.9,302.7,0.00,22.6,24.2,"23:25:12",1
"19/07/03","23:40",0.2,23.3,95.0,1001.0,283.7,0.7,1.8,313.0,0.00,22.5,23.9,"23:36:40",1
"19/07/03","23:50",0.2,23.3,95.1,1000.8,77.2,0.6,1.4,84.9,0.00,22.5,24.0,"23:42:16",1
"19/07/03","24:00",0.0,23.3,95.2,1001.0,283.3,0.3,0.9,314.9,0.00,22.5,23.9,"23:50:32",1
